Погода в Морозовых Борках

Россия / Рязанская область     53°57′16″N   40°55′08″E
темп.,
°C
ветер,
м/с
пор.,
м/с
влажн.,
%
обл.,
%
осадки,
мм/ч
давл.,
гПа
погр.,
м
27 сентября, пн
пн2700:00+9ссв4109371 0.6 1009558
03:00+8с5119499 0.6 1012513
06:00+9с5129399 0.0 1014718
09:00+10с5108142 0.1 1015788
12:00+10с598497 0.1 1017762
15:00+11с588198 0.4 1017852
18:00+9с41089100 0.4 1018628
21:00+8ссв5991100 0.9 1019949
28 сентября, вт
вт2800:00+7св5891100 0.5 1021818
03:00+5св5891100 0.6 1023806
06:00+5св4895100 0.1 1024877
09:00+6св5887100 0.1 1026878
12:00+6всв5877100 0.0 10281065
15:00+8всв475959 0.0 10291239
18:00+6ссв36675 0.0 1030105
21:00+4св38740 0.0 1032167
29 сентября, ср
ср2900:00+3св24780 0.0 103376
03:00+2ссв24820 0.0 103360
06:00+1с248664 0.0 103481
09:00+6ссв356497 0.0 1034377
12:00+10ссв3448100 0.0 10341069
15:00+10ссв344547 0.0 10331258
18:00+6ссв226571 0.0 103415
21:00+4св22705 0.0 103412
30 сентября, чт
чт3000:00+3ссв117534 0.0 103510
03:00+3с117786 0.0 103510
06:00+2ссв22825 0.0 103612
09:00+7ссв12645 0.0 1036279
12:00+11ссв12515 0.0 10351031
15:00+12с224925 0.0 10351370
18:00+8ссз227012 0.0 103515
21:00+6с1178100 0.0 103510
1 октября, пт
пт100:00+6сз117832 0.0 103610
03:00+5зсз22825 0.0 103618
06:00+4сз22865 0.0 103623
09:00+9сз246719 0.0 1036267
12:00+13сз235457 0.0 1036904
15:00+14сз22525 0.0 10351104
18:00+9сз22715 0.0 103511
21:00+8зсз11775 0.0 103610